This is the latest recevied weather packets stored in our database for station/object YO4ISC-13. If no packets are shown the sender has not sent any weather packets the latest 1 day(s).
| Time | Temp. | Humidity | Pressure | Rain* | Wind** | Luminosity | Snow |
|---|---|---|---|---|---|---|---|
| 1778004602 | 11.11° C | 85% | 1018 hPa | - | 0 m/s | - | - |
| 1778004001 | 11.11° C | 84% | 1018 hPa | - | 0.89 m/s, 155° | - | - |
| 1778003402 | 11.67° C | 83% | 1018 hPa | - | 0 m/s | - | - |
| 1778002802 | 11.67° C | 82% | 1017 hPa | - | 0.45 m/s, 151° | - | - |
| 1778002201 | 11.67° C | 81% | 1017 hPa | - | 0.89 m/s, 180° | - | - |
| 1778001602 | 12.22° C | 80% | 1017 hPa | - | 0.89 m/s, 150° | - | - |
| 1778001001 | 12.22° C | 79% | 1017 hPa | - | 1.34 m/s, 165° | - | - |
| 1778000402 | 12.78° C | 78% | 1017 hPa | - | 1.79 m/s, 176° | - | - |
| 1777999801 | 12.78° C | 77% | 1017 hPa | - | 1.79 m/s, 153° | - | - |
| 1777999202 | 12.78° C | 77% | 1017 hPa | - | 1.34 m/s, 148° | - | - |
| 1777998602 | 13.33° C | 74% | 1017 hPa | - | 1.79 m/s, 156° | - | - |
| 1777998002 | 13.33° C | 72% | 1017 hPa | - | 2.24 m/s, 153° | - | - |
| 1777997402 | 13.89° C | 70% | 1017 hPa | - | 2.24 m/s, 162° | - | - |
| 1777996801 | 13.89° C | 71% | 1017 hPa | - | 1.34 m/s, 161° | - | - |
| 1777996202 | 13.89° C | 71% | 1017 hPa | - | 2.24 m/s, 154° | - | - |
| 1777995601 | 13.89° C | 70% | 1017 hPa | - | 2.24 m/s, 163° | - | - |
| 1777995002 | 13.89° C | 69% | 1017 hPa | - | 3.13 m/s, 164° | - | - |
| 1777994401 | 13.89° C | 69% | 1017 hPa | - | 3.13 m/s, 165° | - | - |
| 1777993801 | 14.44° C | 68% | 1017 hPa | - | 2.24 m/s, 138° | - | - |
| 1777993202 | 14.44° C | 69% | 1017 hPa | - | 2.68 m/s, 160° | - | - |
| 1777992601 | 14.44° C | 69% | 1017 hPa | - | 3.58 m/s, 161° | - | - |
| 1777992002 | 13.89° C | 69% | 1017 hPa | - | 4.47 m/s, 166° | - | - |
| 1777991401 | 13.89° C | 69% | 1018 hPa | - | 2.24 m/s, 165° | - | - |
| 1777990802 | 14.44° C | 66% | 1017 hPa | - | 1.79 m/s, 165° | - | - |
| 1777990202 | 14.44° C | 66% | 1018 hPa | - | 4.02 m/s, 163° | - | - |
* Rain since midnight (hover to see other rain measurements)
** Current wind speed in m/s (hover to see current wind gust speed)